Time,TemperatureF,DewpointF,PressureIn,WindDirection,WindDirectionDegrees,WindSpeedMPH,WindSpeedGustMPH,Humidity,HourlyPrecipIn,Conditions,Clouds,dailyrainin,SoftwareType,DateUTC
2013-07-19 00:01:00,79.5,69.6,29.79,South,180,0.0,0.0,72,0.00,,,0.00,WUHU216HW,2013-07-19 05:01:00,
2013-07-19 00:06:00,79.5,69.6,29.79,South,180,0.0,0.0,72,0.00,,,0.00,WUHU216HW,2013-07-19 05:06:00,
2013-07-19 00:11:00,79.5,69.6,29.79,South,180,0.0,0.0,72,0.00,,,0.00,WUHU216HW,2013-07-19 05:11:00,
2013-07-19 00:16:00,79.5,69.6,29.79,SW,225,0.0,0.0,72,0.00,,,0.00,WUHU216HW,2013-07-19 05:16:00,
2013-07-19 00:21:00,79.5,69.6,29.79,South,180,0.0,0.0,72,0.00,,,0.00,WUHU216HW,2013-07-19 05:21:00,
2013-07-19 00:26:00,79.5,69.6,29.79,South,180,0.0,0.0,72,0.00,,,0.00,WUHU216HW,2013-07-19 05:26:00,
2013-07-19 00:31:00,79.5,69.6,29.79,SSW,203,0.0,0.0,72,0.00,,,0.00,WUHU216HW,2013-07-19 05:31:00,
2013-07-19 00:36:00,79.3,69.5,29.79,SSE,158,0.0,0.0,72,0.00,,,0.00,WUHU216HW,2013-07-19 05:36:00,
2013-07-19 00:41:00,79.3,69.5,29.78,South,180,0.0,0.0,72,0.00,,,0.00,WUHU216HW,2013-07-19 05:41:00,
2013-07-19 00:46:00,79.3,69.5,29.78,SSW,203,0.0,0.0,72,0.00,,,0.00,WUHU216HW,2013-07-19 05:46:00,
2013-07-19 00:51:00,79.3,69.5,29.78,SW,225,0.0,0.0,72,0.00,,,0.00,WUHU216HW,2013-07-19 05:51:00,
2013-07-19 00:56:00,79.1,69.3,29.78,SSE,158,0.0,0.0,72,0.00,,,0.00,WUHU216HW,2013-07-19 05:56:00,
2013-07-19 01:01:00,79.1,69.3,29.78,South,180,0.0,0.0,72,0.00,,,0.00,WUHU216HW,2013-07-19 06:01:00,
2013-07-19 01:06:00,78.9,69.1,29.78,South,180,0.0,0.0,72,0.00,,,0.00,WUHU216HW,2013-07-19 06:06:00,
2013-07-19 01:11:00,78.9,69.5,29.77,SSW,203,0.0,0.0,73,0.00,,,0.00,WUHU216HW,2013-07-19 06:11:00,
2013-07-19 01:16:00,78.9,69.5,29.77,South,180,0.0,0.0,73,0.00,,,0.00,WUHU216HW,2013-07-19 06:16:00,
2013-07-19 01:21:00,78.9,69.5,29.77,SSW,203,0.0,0.0,73,0.00,,,0.00,WUHU216HW,2013-07-19 06:21:00,
2013-07-19 01:26:00,79.1,69.7,29.77,SSW,203,0.0,0.0,73,0.00,,,0.00,WUHU216HW,2013-07-19 06:26:00,
2013-07-19 01:31:00,79.1,69.3,29.77,SSE,158,0.0,0.0,72,0.00,,,0.00,WUHU216HW,2013-07-19 06:31:00,
2013-07-19 01:36:00,79.1,69.3,29.77,SSW,203,0.0,0.0,72,0.00,,,0.00,WUHU216HW,2013-07-19 06:36:00,
2013-07-19 01:41:00,79.1,69.3,29.77,SSW,203,0.0,0.0,72,0.00,,,0.00,WUHU216HW,2013-07-19 06:41:00,
2013-07-19 01:46:00,79.1,69.3,29.76,SSW,203,0.0,0.0,72,0.00,,,0.00,WUHU216HW,2013-07-19 06:46:00,
2013-07-19 01:51:00,79.1,69.3,29.76,WSW,248,0.0,0.0,72,0.00,,,0.00,WUHU216HW,2013-07-19 06:51:00,
2013-07-19 01:56:00,79.1,69.3,29.76,South,180,0.0,0.0,72,0.00,,,0.00,WUHU216HW,2013-07-19 06:56:00,
2013-07-19 02:01:00,79.1,69.3,29.76,SSE,158,0.0,0.0,72,0.00,,,0.00,WUHU216HW,2013-07-19 07:01:00,
2013-07-19 02:06:00,79.1,69.3,29.76,SSW,203,0.0,0.0,72,0.00,,,0.00,WUHU216HW,2013-07-19 07:06:00,
2013-07-19 02:11:00,79.3,69.5,29.77,WNW,293,0.0,0.0,72,0.00,,,0.00,WUHU216HW,2013-07-19 07:11:00,
2013-07-19 02:16:00,78.6,69.5,29.75,South,180,0.0,0.0,74,0.00,,,0.00,WUHU216HW,2013-07-19 07:16:00,
2013-07-19 02:21:00,77.7,69.1,29.75,SSW,203,0.0,0.0,75,0.04,,,0.04,WUHU216HW,2013-07-19 07:21:00,
2013-07-19 02:26:00,77.1,69.3,29.79,West,270,0.0,0.0,77,0.04,,,0.04,WUHU216HW,2013-07-19 07:26:00,
2013-07-19 02:31:00,75.7,68.8,29.77,SSW,203,0.0,0.0,79,0.04,,,0.04,WUHU216HW,2013-07-19 07:31:00,
2013-07-19 02:36:00,75.0,68.8,29.77,NNE,23,0.0,0.0,81,0.14,,,0.04,WUHU216HW,2013-07-19 07:36:00,
2013-07-19 02:41:00,74.4,68.3,29.77,SSW,203,0.0,0.0,81,0.14,,,0.15,WUHU216HW,2013-07-19 07:41:00,
2013-07-19 02:46:00,74.4,68.6,29.76,South,180,0.0,0.0,82,0.14,,,0.15,WUHU216HW,2013-07-19 07:46:00,
2013-07-19 02:51:00,74.6,69.2,29.76,SW,225,0.0,0.0,83,0.14,,,0.15,WUHU216HW,2013-07-19 07:51:00,
2013-07-19 02:56:00,74.6,69.2,29.76,WSW,248,0.0,0.0,83,0.14,,,0.15,WUHU216HW,2013-07-19 07:56:00,
2013-07-19 03:01:00,74.4,69.0,29.75,SSW,203,0.0,0.0,83,0.14,,,0.15,WUHU216HW,2013-07-19 08:01:00,
2013-07-19 03:06:00,74.4,69.0,29.75,WSW,248,0.0,0.0,83,0.14,,,0.15,WUHU216HW,2013-07-19 08:06:00,
2013-07-19 03:11:00,74.4,69.0,29.75,SSW,203,0.0,0.0,83,0.14,,,0.15,WUHU216HW,2013-07-19 08:11:00,
2013-07-19 03:16:00,74.3,69.1,29.75,WSW,248,0.0,0.0,84,0.10,,,0.15,WUHU216HW,2013-07-19 08:16:00,
2013-07-19 03:21:00,74.3,69.1,29.75,SSW,203,0.0,0.0,84,0.10,,,0.15,WUHU216HW,2013-07-19 08:21:00,
2013-07-19 03:26:00,74.1,69.0,29.75,SSW,203,0.0,0.0,84,0.10,,,0.15,WUHU216HW,2013-07-19 08:26:00,
2013-07-19 03:31:00,74.4,69.7,29.75,South,180,0.0,0.0,85,0.10,,,0.15,WUHU216HW,2013-07-19 08:31:00,
2013-07-19 03:36:00,74.4,69.7,29.76,SSE,158,0.0,0.0,85,0.00,,,0.15,WUHU216HW,2013-07-19 08:36:00,
2013-07-19 03:41:00,74.6,69.8,29.76,SSW,203,0.0,0.0,85,0.00,,,0.15,WUHU216HW,2013-07-19 08:41:00,
2013-07-19 03:46:00,74.8,69.7,29.76,SSW,203,0.0,0.0,84,0.00,,,0.15,WUHU216HW,2013-07-19 08:46:00,
2013-07-19 03:51:00,74.8,69.7,29.76,SW,225,0.0,0.0,84,0.00,,,0.15,WUHU216HW,2013-07-19 08:51:00,
2013-07-19 03:56:00,74.8,69.7,29.76,SSW,203,0.0,0.0,84,0.00,,,0.15,WUHU216HW,2013-07-19 08:56:00,
2013-07-19 04:01:00,74.8,69.7,29.77,SSE,158,0.0,0.0,84,0.00,,,0.15,WUHU216HW,2013-07-19 09:01:00,
2013-07-19 04:06:00,74.8,69.7,29.77,SSW,203,0.0,0.0,84,0.00,,,0.15,WUHU216HW,2013-07-19 09:06:00,
2013-07-19 04:11:00,74.8,69.7,29.77,SSW,203,0.0,0.0,84,0.00,,,0.15,WUHU216HW,2013-07-19 09:11:00,
2013-07-19 04:16:00,74.8,70.0,29.76,SSW,203,0.0,0.0,85,0.00,,,0.15,WUHU216HW,2013-07-19 09:16:00,
2013-07-19 04:21:00,74.8,70.0,29.77,SW,225,0.0,0.0,85,0.00,,,0.15,WUHU216HW,2013-07-19 09:21:00,
2013-07-19 04:26:00,74.8,70.0,29.76,NW,315,0.0,0.0,85,0.00,,,0.15,WUHU216HW,2013-07-19 09:26:00,
2013-07-19 04:31:00,74.8,70.0,29.77,SSW,203,0.0,0.0,85,0.00,,,0.15,WUHU216HW,2013-07-19 09:31:00,
2013-07-19 04:36:00,74.8,70.0,29.77,SSE,158,0.0,0.0,85,0.00,,,0.15,WUHU216HW,2013-07-19 09:36:00,
2013-07-19 04:41:00,75.0,70.2,29.77,South,180,0.0,0.0,85,0.00,,,0.15,WUHU216HW,2013-07-19 09:41:00,
2013-07-19 04:46:00,75.2,69.9,29.77,SSW,203,0.0,0.0,84,0.00,,,0.15,WUHU216HW,2013-07-19 09:46:00,
2013-07-19 04:51:00,75.2,70.0,29.77,SSW,203,0.0,0.0,84,0.00,,,0.15,WUHU216HW,2013-07-19 09:51:00,
2013-07-19 04:56:00,75.2,70.0,29.77,SW,225,0.0,0.0,84,0.00,,,0.15,WUHU216HW,2013-07-19 09:56:00,
2013-07-19 05:01:00,75.0,69.9,29.77,SSE,158,0.0,0.0,84,0.00,,,0.15,WUHU216HW,2013-07-19 10:01:00,
2013-07-19 05:06:00,75.0,69.9,29.77,SSW,203,0.0,0.0,84,0.00,,,0.15,WUHU216HW,2013-07-19 10:06:00,
2013-07-19 05:11:00,74.8,69.7,29.77,SSW,203,0.0,0.0,84,0.00,,,0.15,WUHU216HW,2013-07-19 10:11:00,
2013-07-19 05:16:00,74.8,69.7,29.77,SW,225,0.0,0.0,84,0.00,,,0.15,WUHU216HW,2013-07-19 10:16:00,
2013-07-19 05:21:00,74.4,69.3,29.77,SSW,203,0.0,0.0,84,0.00,,,0.15,WUHU216HW,2013-07-19 10:21:00,
2013-07-19 05:26:00,74.4,69.3,29.77,SSW,203,0.0,0.0,84,0.00,,,0.15,WUHU216HW,2013-07-19 10:26:00,
2013-07-19 05:31:00,74.1,69.3,29.78,South,180,0.0,0.0,85,0.00,,,0.15,WUHU216HW,2013-07-19 10:31:00,
2013-07-19 05:36:00,74.1,69.3,29.79,South,180,0.0,0.0,85,0.00,,,0.15,WUHU216HW,2013-07-19 10:36:00,
2013-07-19 05:41:00,73.9,69.1,29.78,SSW,203,0.0,0.0,85,0.00,,,0.15,WUHU216HW,2013-07-19 10:41:00,
2013-07-19 05:46:00,73.9,69.1,29.78,South,180,0.0,0.0,85,0.00,,,0.15,WUHU216HW,2013-07-19 10:46:00,
2013-07-19 05:51:00,73.9,69.1,29.79,South,180,0.0,0.0,85,0.00,,,0.15,WUHU216HW,2013-07-19 10:51:00,
2013-07-19 05:56:00,73.9,69.1,29.79,SSW,203,0.0,0.0,85,0.00,,,0.15,WUHU216HW,2013-07-19 10:56:00,
2013-07-19 06:01:00,73.9,69.5,29.79,SSW,203,0.0,0.0,86,0.00,,,0.15,WUHU216HW,2013-07-19 11:01:00,
2013-07-19 06:06:00,73.9,69.5,29.79,South,180,0.0,0.0,86,0.00,,,0.15,WUHU216HW,2013-07-19 11:06:00,
2013-07-19 06:11:00,73.9,69.5,29.79,SSW,203,0.0,0.0,86,0.00,,,0.15,WUHU216HW,2013-07-19 11:11:00,
2013-07-19 06:16:00,73.9,69.5,29.79,SSW,203,0.0,0.0,86,0.00,,,0.15,WUHU216HW,2013-07-19 11:16:00,
2013-07-19 06:21:00,73.9,69.5,29.79,SSW,203,0.0,0.0,86,0.00,,,0.15,WUHU216HW,2013-07-19 11:21:00,
2013-07-19 06:26:00,74.1,69.6,29.79,South,180,0.0,0.0,86,0.00,,,0.15,WUHU216HW,2013-07-19 11:26:00,
2013-07-19 06:31:00,74.1,69.6,29.79,SSW,203,0.0,0.0,86,0.00,,,0.15,WUHU216HW,2013-07-19 11:31:00,
2013-07-19 06:36:00,74.1,69.6,29.79,WSW,248,0.0,0.0,86,0.00,,,0.15,WUHU216HW,2013-07-19 11:36:00,
2013-07-19 06:41:00,74.3,69.8,29.79,SSW,203,0.0,0.0,86,0.00,,,0.15,WUHU216HW,2013-07-19 11:41:00,
2013-07-19 06:46:00,74.8,70.4,29.79,SW,225,0.0,0.0,86,0.00,,,0.15,WUHU216HW,2013-07-19 11:46:00,
2013-07-19 06:51:00,75.0,70.5,29.79,South,180,0.0,0.0,86,0.00,,,0.15,WUHU216HW,2013-07-19 11:51:00,
2013-07-19 06:56:00,75.3,70.9,29.79,South,180,0.0,0.0,86,0.00,,,0.15,WUHU216HW,2013-07-19 11:56:00,
2013-07-19 07:01:00,75.5,71.1,29.79,SW,225,0.0,0.0,86,0.00,,,0.15,WUHU216HW,2013-07-19 12:01:00,
2013-07-19 07:06:00,75.9,71.1,29.79,SSW,203,0.0,0.0,85,0.00,,,0.15,WUHU216HW,2013-07-19 12:06:00,
2013-07-19 07:11:00,76.4,71.6,29.79,West,270,0.0,0.0,85,0.00,,,0.15,WUHU216HW,2013-07-19 12:11:00,
2013-07-19 07:16:00,77.7,72.8,29.79,WNW,293,0.0,0.0,85,0.00,,,0.15,WUHU216HW,2013-07-19 12:16:00,
2013-07-19 07:21:00,78.4,72.8,29.79,WNW,293,0.0,0.0,83,0.00,,,0.15,WUHU216HW,2013-07-19 12:21:00,
2013-07-19 07:22:00,78.4,72.8,29.79,WNW,293,0.0,0.0,83,0.00,,,0.15,WUHU216HW,2013-07-19 12:22:00,
2013-07-19 07:27:00,78.9,73.0,29.79,SSW,203,0.0,0.0,82,0.00,,,0.15,WUHU216HW,2013-07-19 12:27:00,
2013-07-19 07:32:00,80.2,73.5,29.79,WNW,293,0.0,0.0,80,0.00,,,0.15,WUHU216HW,2013-07-19 12:32:00,
2013-07-19 07:37:00,80.7,73.7,29.80,NW,315,0.0,0.0,79,0.00,,,0.15,WUHU216HW,2013-07-19 12:37:00,
2013-07-19 07:42:00,82.2,74.7,29.80,WNW,293,0.0,0.0,78,0.00,,,0.15,WUHU216HW,2013-07-19 12:42:00,
2013-07-19 07:47:00,84.2,74.4,29.79,WNW,293,0.0,0.0,72,0.00,,,0.15,WUHU216HW,2013-07-19 12:47:00,
2013-07-19 07:52:00,84.7,73.9,29.80,WNW,293,0.0,0.0,70,0.00,,,0.15,WUHU216HW,2013-07-19 12:52:00,
2013-07-19 07:57:00,85.1,73.8,29.79,WNW,293,0.0,0.0,69,0.00,,,0.15,WUHU216HW,2013-07-19 12:57:00,
2013-07-19 08:02:00,85.8,73.6,29.80,WNW,293,0.0,0.0,67,0.00,,,0.15,WUHU216HW,2013-07-19 13:02:00,
2013-07-19 08:07:00,86.0,73.7,29.80,WNW,293,0.0,0.0,67,0.00,,,0.15,WUHU216HW,2013-07-19 13:07:00,
2013-07-19 08:12:00,86.1,73.4,29.80,WNW,293,0.0,0.0,66,0.00,,,0.15,WUHU216HW,2013-07-19 13:12:00,
2013-07-19 08:17:00,85.8,72.6,29.80,North,0,0.0,0.0,65,0.00,,,0.15,WUHU216HW,2013-07-19 13:17:00,
2013-07-19 08:22:00,85.8,71.7,29.80,WNW,293,0.0,0.0,63,0.00,,,0.15,WUHU216HW,2013-07-19 13:22:00,
2013-07-19 08:26:00,85.6,71.5,29.80,West,270,0.0,0.0,63,0.00,,,0.15,WUHU216HW,2013-07-19 13:26:00,
2013-07-19 08:31:00,85.1,71.5,29.80,North,0,0.0,0.0,64,0.00,,,0.15,WUHU216HW,2013-07-19 13:31:00,
2013-07-19 08:36:00,84.9,71.3,29.81,WNW,293,0.0,0.0,64,0.00,,,0.15,WUHU216HW,2013-07-19 13:36:00,
2013-07-19 08:41:00,84.9,71.3,29.81,West,270,0.0,0.0,64,0.00,,,0.15,WUHU216HW,2013-07-19 13:41:00,
2013-07-19 08:46:00,84.7,71.2,29.81,WNW,293,0.0,0.0,65,0.00,,,0.15,WUHU216HW,2013-07-19 13:46:00,
2013-07-19 08:51:00,84.0,70.5,29.81,West,270,0.0,0.0,64,0.00,,,0.15,WUHU216HW,2013-07-19 13:51:00,
2013-07-19 08:56:00,83.6,71.0,29.81,NW,315,0.0,0.0,66,0.00,,,0.15,WUHU216HW,2013-07-19 13:56:00,
2013-07-19 09:01:00,83.4,70.8,29.81,WNW,293,0.0,0.0,66,0.00,,,0.15,WUHU216HW,2013-07-19 14:01:00,
2013-07-19 09:06:00,82.9,70.3,29.81,NNW,338,0.0,0.0,66,0.00,,,0.15,WUHU216HW,2013-07-19 14:06:00,
2013-07-19 09:11:00,82.5,69.9,29.81,SW,225,0.0,0.0,66,0.00,,,0.15,WUHU216HW,2013-07-19 14:11:00,
2013-07-19 09:16:00,82.2,69.6,29.82,West,270,0.0,0.0,66,0.00,,,0.15,WUHU216HW,2013-07-19 14:16:00,
2013-07-19 09:21:00,81.6,69.1,29.82,West,270,0.0,0.0,66,0.00,,,0.15,WUHU216HW,2013-07-19 14:21:00,
2013-07-19 09:26:00,81.3,68.8,29.82,NW,315,0.0,0.0,66,0.00,,,0.15,WUHU216HW,2013-07-19 14:26:00,
2013-07-19 09:31:00,80.7,67.4,29.82,WNW,293,0.0,0.0,64,0.00,,,0.15,WUHU216HW,2013-07-19 14:31:00,
2013-07-19 09:36:00,80.4,66.6,29.82,WSW,248,0.0,0.0,63,0.00,,,0.15,WUHU216HW,2013-07-19 14:36:00,
2013-07-19 09:41:00,79.8,65.7,29.83,WNW,293,0.0,0.0,62,0.00,,,0.15,WUHU216HW,2013-07-19 14:41:00,
2013-07-19 09:46:00,79.5,65.8,29.83,West,270,0.0,0.0,63,0.00,,,0.15,WUHU216HW,2013-07-19 14:46:00,
2013-07-19 09:51:00,79.5,66.7,29.83,NW,315,0.0,0.0,65,0.00,,,0.15,WUHU216HW,2013-07-19 14:51:00,
2013-07-19 09:56:00,79.8,67.4,29.82,NW,315,0.0,0.0,66,0.00,,,0.15,WUHU216HW,2013-07-19 14:56:00,
2013-07-19 10:01:00,80.0,67.6,29.83,North,0,0.0,0.0,66,0.00,,,0.15,WUHU216HW,2013-07-19 15:01:00,
2013-07-19 10:06:00,80.4,67.5,29.82,WNW,293,0.0,0.0,65,0.00,,,0.15,WUHU216HW,2013-07-19 15:06:00,
2013-07-19 10:11:00,80.4,68.0,29.83,WNW,293,0.0,0.0,66,0.00,,,0.15,WUHU216HW,2013-07-19 15:11:00,
2013-07-19 10:16:00,80.6,67.7,29.83,WNW,293,0.0,0.0,65,0.00,,,0.15,WUHU216HW,2013-07-19 15:16:00,
2013-07-19 10:21:00,80.4,67.5,29.83,NW,315,0.0,0.0,65,0.00,,,0.15,WUHU216HW,2013-07-19 15:21:00,
2013-07-19 10:26:00,80.4,67.5,29.83,NNW,338,0.0,0.0,65,0.00,,,0.15,WUHU216HW,2013-07-19 15:26:00,
2013-07-19 10:31:00,80.4,67.1,29.83,NW,315,0.0,0.0,63,0.00,,,0.15,WUHU216HW,2013-07-19 15:31:00,
2013-07-19 10:36:00,80.2,66.4,29.83,West,270,0.0,0.0,63,0.00,,,0.15,WUHU216HW,2013-07-19 15:36:00,
2013-07-19 10:41:00,80.2,66.0,29.83,NW,315,0.0,0.0,62,0.00,,,0.15,WUHU216HW,2013-07-19 15:41:00,
2013-07-19 10:46:00,80.4,66.6,29.83,West,270,0.0,0.0,63,0.00,,,0.15,WUHU216HW,2013-07-19 15:46:00,
2013-07-19 10:51:00,80.4,66.2,29.83,West,270,0.0,0.0,62,0.00,,,0.15,WUHU216HW,2013-07-19 15:51:00,
2013-07-19 10:56:00,80.6,66.8,29.84,West,270,0.0,0.0,63,0.00,,,0.15,WUHU216HW,2013-07-19 15:56:00,
2013-07-19 11:01:00,80.7,66.5,29.84,NW,315,0.0,0.0,62,0.00,,,0.15,WUHU216HW,2013-07-19 16:01:00,
2013-07-19 11:06:00,80.7,66.0,29.84,NW,315,0.0,0.0,61,0.00,,,0.15,WUHU216HW,2013-07-19 16:06:00,
2013-07-19 11:11:00,80.7,66.0,29.84,West,270,0.0,0.0,61,0.00,,,0.15,WUHU216HW,2013-07-19 16:11:00,
2013-07-19 11:16:00,80.7,65.6,29.84,NW,315,0.0,0.0,60,0.00,,,0.15,WUHU216HW,2013-07-19 16:16:00,
2013-07-19 11:21:00,80.6,65.4,29.84,WNW,293,0.0,0.0,60,0.00,,,0.15,WUHU216HW,2013-07-19 16:21:00,
2013-07-19 11:26:00,80.7,66.5,29.84,NW,315,0.0,0.0,62,0.00,,,0.15,WUHU216HW,2013-07-19 16:26:00,
2013-07-19 11:31:00,81.1,66.8,29.84,NW,315,0.0,0.0,62,0.00,,,0.15,WUHU216HW,2013-07-19 16:31:00,
2013-07-19 11:36:00,81.3,67.0,29.84,WNW,293,0.0,0.0,62,0.00,,,0.15,WUHU216HW,2013-07-19 16:36:00,
2013-07-19 11:41:00,81.5,66.7,29.85,NW,315,0.0,0.0,61,0.00,,,0.15,WUHU216HW,2013-07-19 16:41:00,
2013-07-19 11:46:00,81.6,66.4,29.85,WNW,293,0.0,0.0,60,0.00,,,0.15,WUHU216HW,2013-07-19 16:46:00,
2013-07-19 11:51:00,81.6,66.4,29.85,WNW,293,0.0,0.0,60,0.00,,,0.15,WUHU216HW,2013-07-19 16:51:00,
2013-07-19 11:56:00,81.3,66.1,29.85,West,270,0.0,0.0,60,0.00,,,0.15,WUHU216HW,2013-07-19 16:56:00,
2013-07-19 12:01:00,81.6,66.7,29.85,NW,315,0.0,0.0,61,0.00,,,0.15,WUHU216HW,2013-07-19 17:01:00,
2013-07-19 12:06:00,82.2,66.9,29.85,WNW,293,0.0,0.0,60,0.00,,,0.15,WUHU216HW,2013-07-19 17:06:00,
2013-07-19 12:11:00,81.6,65.9,29.85,West,270,0.0,0.0,59,0.00,,,0.15,WUHU216HW,2013-07-19 17:11:00,
2013-07-19 12:16:00,81.6,66.4,29.85,West,270,0.0,0.0,60,0.00,,,0.15,WUHU216HW,2013-07-19 17:16:00,
2013-07-19 12:21:00,81.6,66.9,29.85,NW,315,0.0,0.0,61,0.00,,,0.15,WUHU216HW,2013-07-19 17:21:00,
2013-07-19 12:26:00,81.6,66.9,29.85,WNW,293,0.0,0.0,61,0.00,,,0.15,WUHU216HW,2013-07-19 17:26:00,
2013-07-19 12:31:00,81.5,66.2,29.85,WNW,293,0.0,0.0,60,0.00,,,0.15,WUHU216HW,2013-07-19 17:31:00,
2013-07-19 12:36:00,81.3,66.5,29.85,NW,315,0.0,0.0,61,0.00,,,0.15,WUHU216HW,2013-07-19 17:36:00,
2013-07-19 12:41:00,81.3,66.5,29.85,WNW,293,0.0,0.0,61,0.00,,,0.15,WUHU216HW,2013-07-19 17:41:00,
2013-07-19 12:46:00,81.3,67.0,29.85,NW,315,0.0,0.0,62,0.00,,,0.15,WUHU216HW,2013-07-19 17:46:00,
2013-07-19 12:51:00,81.5,67.1,29.86,West,270,0.0,0.0,62,0.00,,,0.15,WUHU216HW,2013-07-19 17:51:00,
2013-07-19 12:56:00,81.5,67.1,29.85,WNW,293,0.0,0.0,62,0.00,,,0.15,WUHU216HW,2013-07-19 17:56:00,
2013-07-19 13:01:00,81.8,66.6,29.85,WNW,293,0.0,0.0,60,0.00,,,0.15,WUHU216HW,2013-07-19 18:01:00,
2013-07-19 13:06:00,81.8,66.6,29.85,West,270,0.0,0.0,60,0.00,,,0.15,WUHU216HW,2013-07-19 18:06:00,
2013-07-19 13:11:00,82.0,67.2,29.85,NNW,338,0.0,0.0,61,0.00,,,0.15,WUHU216HW,2013-07-19 18:11:00,
2013-07-19 13:16:00,81.6,66.4,29.86,NW,315,0.0,0.0,60,0.00,,,0.15,WUHU216HW,2013-07-19 18:16:00,
2013-07-19 13:21:00,81.5,66.2,29.86,West,270,0.0,0.0,60,0.00,,,0.15,WUHU216HW,2013-07-19 18:21:00,
2013-07-19 13:26:00,81.3,65.6,29.86,West,270,0.0,0.0,59,0.00,,,0.15,WUHU216HW,2013-07-19 18:26:00,
2013-07-19 13:31:00,81.3,66.5,29.86,WNW,293,0.0,0.0,61,0.00,,,0.15,WUHU216HW,2013-07-19 18:31:00,
2013-07-19 13:36:00,81.5,66.2,29.86,WNW,293,0.0,0.0,60,0.00,,,0.15,WUHU216HW,2013-07-19 18:36:00,
2013-07-19 13:41:00,81.6,65.9,29.86,WNW,293,0.0,0.0,59,0.00,,,0.15,WUHU216HW,2013-07-19 18:41:00,
2013-07-19 13:46:00,81.5,65.9,29.86,WNW,293,0.0,0.0,57,0.00,,,0.15,WUHU216HW,2013-07-19 18:46:00,
2013-07-19 13:51:00,81.3,64.5,29.87,NNE,23,0.0,0.0,57,0.00,,,0.15,WUHU216HW,2013-07-19 18:51:00,
2013-07-19 13:56:00,81.3,64.5,29.86,NNW,338,0.0,0.0,57,0.00,,,0.15,WUHU216HW,2013-07-19 18:56:00,
2013-07-19 14:01:00,81.3,64.5,29.87,North,0,0.0,0.0,57,0.00,,,0.15,WUHU216HW,2013-07-19 19:01:00,
2013-07-19 14:06:00,81.5,63.6,29.87,NW,315,0.0,0.0,55,0.00,,,0.15,WUHU216HW,2013-07-19 19:06:00,
2013-07-19 14:11:00,81.6,64.3,29.87,NW,315,0.0,0.0,56,0.00,,,0.15,WUHU216HW,2013-07-19 19:11:00,
2013-07-19 14:16:00,81.6,64.2,29.86,WNW,293,0.0,0.0,56,0.00,,,0.15,WUHU216HW,2013-07-19 19:16:00,
2013-07-19 14:21:00,81.3,64.0,29.87,NW,315,0.0,0.0,56,0.00,,,0.15,WUHU216HW,2013-07-19 19:21:00,
2013-07-19 14:26:00,81.3,64.0,29.87,West,270,0.0,0.0,56,0.00,,,0.15,WUHU216HW,2013-07-19 19:26:00,
2013-07-19 14:31:00,81.5,63.1,29.87,NW,315,0.0,0.0,54,0.00,,,0.15,WUHU216HW,2013-07-19 19:31:00,
2013-07-19 14:36:00,81.6,63.3,29.86,WNW,293,0.0,0.0,54,0.00,,,0.15,WUHU216HW,2013-07-19 19:36:00,
2013-07-19 14:41:00,81.8,62.9,29.86,NW,315,0.0,0.0,53,0.00,,,0.15,WUHU216HW,2013-07-19 19:41:00,
2013-07-19 14:46:00,82.2,63.8,29.86,WNW,293,0.0,0.0,54,0.00,,,0.15,WUHU216HW,2013-07-19 19:46:00,
2013-07-19 14:51:00,82.2,63.8,29.86,WNW,293,0.0,0.0,54,0.00,,,0.15,WUHU216HW,2013-07-19 19:51:00,
2013-07-19 14:56:00,82.4,64.4,29.86,NNW,338,0.0,0.0,55,0.00,,,0.15,WUHU216HW,2013-07-19 19:56:00,
2013-07-19 15:01:00,82.5,63.1,29.86,NW,315,0.0,0.0,52,0.00,,,0.15,WUHU216HW,2013-07-19 20:01:00,
2013-07-19 15:06:00,82.5,64.1,29.86,NW,315,0.0,0.0,54,0.00,,,0.15,WUHU216HW,2013-07-19 20:06:00,
2013-07-19 15:11:00,82.7,64.3,29.86,NNW,338,0.0,0.0,54,0.00,,,0.15,WUHU216HW,2013-07-19 20:11:00,
2013-07-19 15:16:00,82.9,63.4,29.86,NW,315,0.0,0.0,52,0.00,,,0.15,WUHU216HW,2013-07-19 20:16:00,
2013-07-19 15:21:00,82.7,63.8,29.86,WNW,293,0.0,0.0,53,0.00,,,0.15,WUHU216HW,2013-07-19 20:21:00,
2013-07-19 15:26:00,82.9,63.9,29.86,NW,315,0.0,0.0,53,0.00,,,0.15,WUHU216HW,2013-07-19 20:26:00,
2013-07-19 15:31:00,82.7,63.8,29.86,NW,315,0.0,0.0,53,0.00,,,0.15,WUHU216HW,2013-07-19 20:31:00,
2013-07-19 15:36:00,82.5,64.1,29.86,West,270,0.0,0.0,54,0.00,,,0.15,WUHU216HW,2013-07-19 20:36:00,
2013-07-19 15:41:00,82.5,63.1,29.86,NW,315,0.0,0.0,52,0.00,,,0.15,WUHU216HW,2013-07-19 20:41:00,
2013-07-19 15:46:00,82.5,63.6,29.86,NW,315,0.0,0.0,53,0.00,,,0.15,WUHU216HW,2013-07-19 20:46:00,
2013-07-19 15:51:00,82.5,63.6,29.86,WNW,293,0.0,0.0,53,0.00,,,0.15,WUHU216HW,2013-07-19 20:51:00,
2013-07-19 15:56:00,82.7,64.3,29.86,NW,315,0.0,0.0,54,0.00,,,0.15,WUHU216HW,2013-07-19 20:56:00,
2013-07-19 16:01:00,82.9,63.9,29.86,NW,315,0.0,0.0,53,0.00,,,0.15,WUHU216HW,2013-07-19 21:01:00,
2013-07-19 16:06:00,82.7,63.2,29.86,NW,315,0.0,0.0,52,0.00,,,0.15,WUHU216HW,2013-07-19 21:06:00,
2013-07-19 16:11:00,82.7,63.8,29.86,NNW,338,0.0,0.0,53,0.00,,,0.15,WUHU216HW,2013-07-19 21:11:00,
2013-07-19 16:16:00,82.7,62.7,29.86,NW,315,0.0,0.0,51,0.00,,,0.15,WUHU216HW,2013-07-19 21:16:00,
2013-07-19 16:21:00,82.5,62.5,29.86,WNW,293,0.0,0.0,51,0.00,,,0.15,WUHU216HW,2013-07-19 21:21:00,
2013-07-19 16:26:00,82.7,62.2,29.86,NW,315,0.0,0.0,50,0.00,,,0.15,WUHU216HW,2013-07-19 21:26:00,
2013-07-19 16:31:00,82.5,63.1,29.86,West,270,0.0,0.0,52,0.00,,,0.15,WUHU216HW,2013-07-19 21:31:00,
2013-07-19 16:36:00,82.9,63.9,29.86,NW,315,0.0,0.0,53,0.00,,,0.15,WUHU216HW,2013-07-19 21:36:00,
2013-07-19 16:41:00,83.1,64.1,29.86,NNW,338,0.0,0.0,53,0.00,,,0.15,WUHU216HW,2013-07-19 21:41:00,
2013-07-19 16:46:00,83.1,63.6,29.86,West,270,0.0,0.0,52,0.00,,,0.15,WUHU216HW,2013-07-19 21:46:00,
2013-07-19 16:51:00,82.9,62.4,29.86,WNW,293,0.0,0.0,50,0.00,,,0.15,WUHU216HW,2013-07-19 21:51:00,
2013-07-19 16:56:00,82.7,62.7,29.86,NW,315,0.0,0.0,51,0.00,,,0.15,WUHU216HW,2013-07-19 21:56:00,
2013-07-19 17:01:00,82.7,63.2,29.86,SSW,203,0.0,0.0,52,0.00,,,0.15,WUHU216HW,2013-07-19 22:01:00,
2013-07-19 17:06:00,83.1,64.1,29.86,NW,315,0.0,0.0,53,0.00,,,0.15,WUHU216HW,2013-07-19 22:06:00,
2013-07-19 17:11:00,83.1,63.6,29.86,NW,315,0.0,0.0,52,0.00,,,0.15,WUHU216HW,2013-07-19 22:11:00,
2013-07-19 17:16:00,82.9,63.9,29.86,WNW,293,0.0,0.0,53,0.00,,,0.15,WUHU216HW,2013-07-19 22:16:00,
2013-07-19 17:21:00,83.1,64.1,29.86,NW,315,0.0,0.0,53,0.00,,,0.15,WUHU216HW,2013-07-19 22:21:00,
2013-07-19 17:26:00,82.9,62.9,29.85,NW,315,0.0,0.0,51,0.00,,,0.15,WUHU216HW,2013-07-19 22:26:00,
2013-07-19 17:31:00,82.7,62.7,29.85,West,270,0.0,0.0,51,0.00,,,0.15,WUHU216HW,2013-07-19 22:31:00,
2013-07-19 17:36:00,82.7,62.7,29.86,NW,315,0.0,0.0,51,0.00,,,0.15,WUHU216HW,2013-07-19 22:36:00,
2013-07-19 17:41:00,82.5,62.7,29.86,NW,315,0.0,0.0,51,0.00,,,0.15,WUHU216HW,2013-07-19 22:41:00,
2013-07-19 17:46:00,82.2,62.2,29.86,WNW,293,0.0,0.0,51,0.00,,,0.15,WUHU216HW,2013-07-19 22:46:00,
2013-07-19 17:51:00,81.5,62.6,29.85,West,270,0.0,0.0,53,0.00,,,0.15,WUHU216HW,2013-07-19 22:51:00,
2013-07-19 17:56:00,81.5,62.6,29.86,WNW,293,0.0,0.0,53,0.00,,,0.15,WUHU216HW,2013-07-19 22:56:00,
2013-07-19 18:01:00,81.8,62.4,29.86,WNW,293,0.0,0.0,52,0.00,,,0.15,WUHU216HW,2013-07-19 23:01:00,
2013-07-19 18:06:00,82.0,62.0,29.86,WNW,293,0.0,0.0,51,0.00,,,0.15,WUHU216HW,2013-07-19 23:06:00,
2013-07-19 18:11:00,81.8,62.4,29.85,NNW,338,0.0,0.0,52,0.00,,,0.15,WUHU216HW,2013-07-19 23:11:00,
2013-07-19 18:16:00,81.6,62.2,29.85,NW,315,0.0,0.0,52,0.00,,,0.15,WUHU216HW,2013-07-19 23:16:00,
2013-07-19 18:21:00,81.6,62.2,29.85,WNW,293,0.0,0.0,52,0.00,,,0.15,WUHU216HW,2013-07-19 23:21:00,
2013-07-19 18:26:00,81.6,62.2,29.85,WNW,293,0.0,0.0,53,0.00,,,0.15,WUHU216HW,2013-07-19 23:26:00,
2013-07-19 18:31:00,81.6,62.7,29.85,NW,315,0.0,0.0,53,0.00,,,0.15,WUHU216HW,2013-07-19 23:31:00,
2013-07-19 18:36:00,81.6,62.7,29.85,WSW,248,0.0,0.0,53,0.00,,,0.15,WUHU216HW,2013-07-19 23:36:00,
2013-07-19 18:41:00,82.0,62.6,29.85,WNW,293,0.0,0.0,52,0.00,,,0.15,WUHU216HW,2013-07-19 23:41:00,
2013-07-19 18:46:00,82.2,62.7,29.85,WNW,293,0.0,0.0,52,0.00,,,0.15,WUHU216HW,2013-07-19 23:46:00,
2013-07-19 18:51:00,82.9,63.4,29.85,NW,315,0.0,0.0,52,0.00,,,0.15,WUHU216HW,2013-07-19 23:51:00,
2013-07-19 18:56:00,82.9,62.9,29.85,WNW,293,0.0,0.0,51,0.00,,,0.15,WUHU216HW,2013-07-19 23:56:00,
2013-07-19 19:01:00,82.5,63.1,29.85,NW,315,0.0,0.0,52,0.00,,,0.15,WUHU216HW,2013-07-20 00:01:00,
2013-07-19 19:06:00,83.8,64.3,29.85,NW,315,0.0,0.0,52,0.00,,,0.15,WUHU216HW,2013-07-20 00:06:00,
2013-07-19 19:11:00,85.8,64.5,29.85,NW,315,0.0,0.0,49,0.00,,,0.15,WUHU216HW,2013-07-20 00:11:00,
2013-07-19 19:15:00,86.1,64.8,29.85,WNW,293,0.0,0.0,49,0.00,,,0.15,WUHU216HW,2013-07-20 00:15:00,
2013-07-19 19:20:00,86.3,64.3,29.85,NNW,338,0.0,0.0,48,0.00,,,0.15,WUHU216HW,2013-07-20 00:20:00,
2013-07-19 19:26:00,86.3,64.3,29.85,NW,315,0.0,0.0,48,0.00,,,0.15,WUHU216HW,2013-07-20 00:26:00,
2013-07-19 19:31:00,86.3,64.3,29.85,WNW,293,0.0,0.0,48,0.00,,,0.15,WUHU216HW,2013-07-20 00:31:00,
2013-07-19 19:35:00,86.0,64.0,29.85,WNW,293,0.0,0.0,48,0.00,,,0.15,WUHU216HW,2013-07-20 00:35:00,
2013-07-19 19:41:00,85.6,64.3,29.86,NW,315,0.0,0.0,49,0.00,,,0.15,WUHU216HW,2013-07-20 00:41:00,
2013-07-19 19:45:00,85.2,64.0,29.85,WNW,293,0.0,0.0,49,0.00,,,0.15,WUHU216HW,2013-07-20 00:45:00,
2013-07-19 19:51:00,85.2,64.0,29.85,WNW,293,0.0,0.0,49,0.00,,,0.15,WUHU216HW,2013-07-20 00:51:00,
2013-07-19 19:55:00,84.9,64.3,29.86,WSW,248,0.0,0.0,50,0.00,,,0.15,WUHU216HW,2013-07-20 00:55:00,
2013-07-19 20:00:00,84.5,64.5,29.85,West,270,0.0,0.0,51,0.00,,,0.15,WUHU216HW,2013-07-20 01:00:00,
2013-07-19 20:05:00,84.0,64.0,29.86,NW,315,0.0,0.0,51,0.00,,,0.15,WUHU216HW,2013-07-20 01:05:00,
2013-07-19 20:10:00,83.1,63.6,29.86,WNW,293,0.0,0.0,52,0.00,,,0.15,WUHU216HW,2013-07-20 01:10:00,
2013-07-19 20:15:00,82.2,62.7,29.86,WNW,293,0.0,0.0,52,0.00,,,0.15,WUHU216HW,2013-07-20 01:15:00,
2013-07-19 20:20:00,81.6,62.7,29.85,WNW,293,0.0,0.0,53,0.00,,,0.15,WUHU216HW,2013-07-20 01:20:00,
2013-07-19 20:25:00,80.4,62.7,29.85,NW,315,0.0,0.0,55,0.00,,,0.15,WUHU216HW,2013-07-20 01:25:00,
2013-07-19 20:30:00,79.3,62.2,29.86,WNW,293,0.0,0.0,56,0.00,,,0.15,WUHU216HW,2013-07-20 01:30:00,
2013-07-19 20:35:00,77.7,61.7,29.86,NW,315,0.0,0.0,58,0.00,,,0.15,WUHU216HW,2013-07-20 01:35:00,
2013-07-19 20:40:00,76.1,60.7,29.86,WNW,293,0.0,0.0,59,0.00,,,0.15,WUHU216HW,2013-07-20 01:40:00,
2013-07-19 20:46:00,75.3,61.0,29.86,NW,315,0.0,0.0,61,0.00,,,0.15,WUHU216HW,2013-07-20 01:46:00,
2013-07-19 20:51:00,74.4,60.5,29.85,NW,315,0.0,0.0,62,0.00,,,0.15,WUHU216HW,2013-07-20 01:51:00,
2013-07-19 20:55:00,73.5,60.1,29.86,NW,315,0.0,0.0,63,0.00,,,0.15,WUHU216HW,2013-07-20 01:55:00,
2013-07-19 21:00:00,73.0,59.6,29.86,West,270,0.0,0.0,63,0.00,,,0.15,WUHU216HW,2013-07-20 02:00:00,
2013-07-19 21:05:00,72.3,59.4,29.86,WNW,293,0.0,0.0,64,0.00,,,0.15,WUHU216HW,2013-07-20 02:05:00,
2013-07-19 21:11:00,71.7,59.0,29.86,West,270,0.0,0.0,64,0.00,,,0.15,WUHU216HW,2013-07-20 02:11:00,
2013-07-19 21:16:00,70.8,58.9,29.86,West,270,0.0,0.0,66,0.00,,,0.15,WUHU216HW,2013-07-20 02:16:00,
2013-07-19 21:21:00,70.5,58.9,29.86,WNW,293,0.0,0.0,67,0.00,,,0.15,WUHU216HW,2013-07-20 02:21:00,
2013-07-19 21:26:00,70.1,59.0,29.86,WNW,293,0.0,0.0,68,0.00,,,0.15,WUHU216HW,2013-07-20 02:26:00,
2013-07-19 21:30:00,69.9,59.2,29.87,WNW,293,0.0,0.0,69,0.00,,,0.15,WUHU216HW,2013-07-20 02:30:00,
2013-07-19 21:35:00,69.9,59.7,29.87,WNW,293,0.0,0.0,70,0.00,,,0.15,WUHU216HW,2013-07-20 02:35:00,
2013-07-19 21:40:00,69.6,59.3,29.87,NW,315,0.0,0.0,70,0.00,,,0.15,WUHU216HW,2013-07-20 02:40:00,
2013-07-19 21:45:00,69.6,59.7,29.87,NW,315,0.0,0.0,71,0.00,,,0.15,WUHU216HW,2013-07-20 02:45:00,
2013-07-19 21:50:00,69.6,59.3,29.87,NW,315,0.0,0.0,70,0.00,,,0.15,WUHU216HW,2013-07-20 02:50:00,
2013-07-19 21:55:00,69.4,59.5,29.87,NNW,338,0.0,0.0,71,0.00,,,0.15,WUHU216HW,2013-07-20 02:55:00,
2013-07-19 22:00:00,69.2,59.8,29.87,NW,315,0.0,0.0,72,0.00,,,0.15,WUHU216HW,2013-07-20 03:00:00,
2013-07-19 22:05:00,69.0,59.6,29.87,NW,315,0.0,0.0,72,0.00,,,0.15,WUHU216HW,2013-07-20 03:05:00,
2013-07-19 22:11:00,68.9,59.4,29.87,NW,315,0.0,0.0,72,0.00,,,0.15,WUHU216HW,2013-07-20 03:11:00,
2013-07-19 22:15:00,68.7,59.7,29.88,NNW,338,0.0,0.0,73,0.00,,,0.15,WUHU216HW,2013-07-20 03:15:00,
2013-07-19 22:21:00,69.0,60.0,29.88,WNW,293,0.0,0.0,73,0.00,,,0.15,WUHU216HW,2013-07-20 03:21:00,
2013-07-19 22:26:00,69.0,60.0,29.88,WNW,293,0.0,0.0,73,0.00,,,0.15,WUHU216HW,2013-07-20 03:26:00,
2013-07-19 22:30:00,69.0,60.0,29.88,WNW,293,0.0,0.0,73,0.00,,,0.15,WUHU216HW,2013-07-20 03:30:00,
2013-07-19 22:36:00,69.0,60.4,29.89,NW,315,0.0,0.0,74,0.00,,,0.15,WUHU216HW,2013-07-20 03:36:00,
2013-07-19 22:40:00,69.4,60.3,29.88,NW,315,0.0,0.0,73,0.00,,,0.15,WUHU216HW,2013-07-20 03:40:00,
2013-07-19 22:46:00,69.4,60.3,29.89,WNW,293,0.0,0.0,73,0.00,,,0.15,WUHU216HW,2013-07-20 03:46:00,
2013-07-19 22:51:00,69.2,60.1,29.89,WNW,293,0.0,0.0,73,0.00,,,0.15,WUHU216HW,2013-07-20 03:51:00,
2013-07-19 22:55:00,68.9,59.8,29.89,WNW,293,0.0,0.0,73,0.00,,,0.15,WUHU216HW,2013-07-20 03:55:00,
2013-07-19 23:01:00,68.9,60.2,29.89,WNW,293,0.0,0.0,74,0.00,,,0.15,WUHU216HW,2013-07-20 04:01:00,
2013-07-19 23:02:00,68.9,60.2,29.89,WNW,293,0.0,0.0,74,0.00,,,0.15,WUHU216HW,2013-07-20 04:02:00,
2013-07-19 23:07:00,68.5,59.5,29.89,WNW,293,0.0,0.0,73,0.00,,,0.15,WUHU216HW,2013-07-20 04:07:00,
2013-07-19 23:12:00,68.1,59.5,29.89,WNW,293,0.0,0.0,74,0.00,,,0.15,WUHU216HW,2013-07-20 04:12:00,
2013-07-19 23:17:00,67.8,59.2,29.89,WNW,293,0.0,0.0,74,0.00,,,0.15,WUHU216HW,2013-07-20 04:17:00,
2013-07-19 23:22:00,67.6,59.4,29.90,WNW,293,0.0,0.0,75,0.00,,,0.15,WUHU216HW,2013-07-20 04:22:00,
2013-07-19 23:27:00,67.6,59.4,29.90,WNW,293,0.0,0.0,75,0.00,,,0.15,WUHU216HW,2013-07-20 04:27:00,
2013-07-19 23:32:00,67.6,59.8,29.89,WNW,293,0.0,0.0,76,0.00,,,0.15,WUHU216HW,2013-07-20 04:32:00,
2013-07-19 23:37:00,67.6,59.8,29.89,WNW,293,0.0,0.0,76,0.00,,,0.15,WUHU216HW,2013-07-20 04:37:00,
2013-07-19 23:42:00,67.6,59.8,29.90,WNW,293,0.0,0.0,76,0.00,,,0.15,WUHU216HW,2013-07-20 04:42:00,
2013-07-19 23:47:00,67.2,59.0,29.89,WNW,293,0.0,0.0,75,0.00,,,0.15,WUHU216HW,2013-07-20 04:47:00,
2013-07-19 23:52:00,66.7,58.5,29.89,WNW,293,0.0,0.0,75,0.00,,,0.15,WUHU216HW,2013-07-20 04:52:00,
2013-07-19 23:57:00,66.5,58.7,29.89,WNW,293,0.0,0.0,76,0.00,,,0.15,WUHU216HW,2013-07-20 04:57:00,